Погода Охотский Перевоз

Погода Охотский Перевоз : погода сейчас, прогноз погоды и архив. Всё, что Вы хотите узнать о погоде Охотский Перевоз!

Поиск расширенной информации на нашем сайте:

Другие новости

Новости СМИ2

Главная страница сайта

Новости сайта

03.07.2017

Напоминаем, что на нашем специализированном сайте Метеоцентр.Азия вы можете получить высокодетализированные автоматические прогнозы погоды по пунктам России, СНГ и мира в авиационном формате (включающие направление и скорость ветра, видимость, явления погоды, количество и форму облачности, нижнюю и верхнюю границу облачности).

Рекомендуем: Парк отдыха веслево Платная рыбалка.

Погода Охотский Перевоз - сегодня

Время (UTC), дата Ветер
(°,м/с) 
Видим.   Явления Облачность Т
(°С)
Тd
(°С)
f(%) Тe
(°С)
Pmin
(гПа)
dP
(гПа)
Po
(мм)
O2
(г/м3)
Тmin Tmax R s Состояние
почвы
09 16.04.18 010 (С) 20000 м    ясно 
+4.9 -11.2 30 +6  999.2  -0.6  737  293    +6.7       
12 16.04.18 тихо ()   10 км    3/3 1000 м 
[Sc]
+0.2 -10.1 46 999.6  0.1  737  298           
15 16.04.18 тихо ()   10 км    ясно 
-6.1 -11 68 -6  999.7  -0.3  736  305           
18 16.04.18 тихо ()   10 км    4/0 
[Sc]
-10.4 -12.4 85 -10  1000  736  310           
00 17.04.18 180 (Ю) 20000 м    9/0 средняя 
[Ac und]
-4 -9.4 66 -4  999.9  0.2  737  302  -12.5         
03 17.04.18 160 (Ю) 2000 м  снег  10/0 средняя 
[As op]
+0.2 -0.4 96 -2  1000  0.2  737  297           
06 17.04.18 280 (З) 10 км  слаб. дождь{снег}  10/8 600 м средняя 
[Frnb|As op]
+2.7 -1.5 74 +1  999.9  0.1  737  294           
12 17.04.18 тихо ()   10 км  {снег, дождь}  10/0 средняя 
[Ac und]
+1.8 -7.1 52 +2  1001.8  1.2  738  296           
15 17.04.18 180 (Ю) 10 км    6/0 средняя 
[Ac und]
-0.3 -8.5 54 -1  1002.5  0.5  739  299           
18 17.04.18 170 (Ю) 10 км    10/0 средняя 
[Ac und]
-2 -8.6 61 -4  1003  0.5  739  301           
21 17.04.18 180 (Ю) 20000 м    8/0 верхняя 
[Cs]
-3.9 -11.6 55 -7  1004.1  740  303  -3.9      32  равномерный
мокрый или
старый снег
100% 
00 18.04.18 260 (З) 20000 м    3/3 1000 м 
[Sc]
+0.9 -11.6 39 1004.2  0.3  740  298  -5.3         
03 18.04.18 360 (С) 20000 м    8/3 1000 м средняя 
[Sc|As op]
+2.1 -6.3 54 +1  1004.7  0.7  741  297           
06 18.04.18 360 (С) 20000 м    8/4 600 м средняя 
[Cu Sc|Ac trans]
+3.7 -9.7 37 +5  1004.2  -0.4  740  295           
12 18.04.18 тихо ()   10 км    ясно 
-1.3 -8.1 60 -1  1007  1.5  742  301           
15 18.04.18 350 (С) 10 км    ясно 
-4.1 -7.9 75 -5  1007.5  0.4  742  304           
18 18.04.18 тихо ()   10 км    ясно 
-9.7 -10.9 91 -10  1008.7  0.8  743  311           
21 18.04.18 350 (С) 20000 м    1/1 1000 м 
[Sc]
-13.2 -13.8 95 -13  1009.4  0.4  743  316  -13.4      31  равномерный
мокрый или
старый снег
100% 
00 19.04.18 350 (С) 20000 м    3/0 средняя, верхняя 
[Ac trans|Ci fib]
-8 -10.3 83 -10  1008.7  -0.3  743  309           
03 19.04.18 350 (С) 20000 м    ясно 
+3.9 -8.3 41 +3  1007  -0.9  742  296           
06 19.04.18 060 (СВ) 20000 м    ясно 
+6.7 -9.1 31 +6  1005.6  -1.3  741  292           
12 19.04.18 010 (С) 10 км    4/0 верхняя 
[Ci fib]
+3 -9.9 38 +2  1005.7  0.8  741  296           
15 19.04.18 280 (З) 10 км    4/0 верхняя 
[Ci fib]
-2.6 -9.9 57 -4  1006.4  0.3  741  303           
18 19.04.18 110 (В) 10 км    3/0 верхняя 
[Ci fib]
-4.8 -10.1 66 -4  1007.3  0.8  742  305           
00 20.04.18 280 (З) 20000 м    9/9 600 м 
[Sc]
+0.6 -3.7 73 1009.4  0.9  744  299           
Время (UTC), дата Ветер
(°,м/с) 
Видим.   Явления Облачность Т
(°С)
Тd
(°С)
f(%) Тe
(°С)
Pmin
(гПа)
dP
(гПа)
Po
(мм)
O2
(г/м3)
Тmin Tmax R s Состояние
почвы

Для получения пояснительной информации подведите курсор к названию столбца.

ПОГОДА Охотский Перевоз - архив

Всё, что Вы хотите узнать о погоде Охотский Перевоз - удобно и подробно!

Выберите нужную дату (начиная с 1 января 2015* года) и нажмите кнопку "Найти".
Будут отображены архивные сводки погоды по пункту Охотский Перевоз, начиная с указанной даты.


Отображать данные в формате CSV (для использования в таблицах Excel)


Внимание! Наш архив погоды предназначен исключительно для личного некоммерческого использования в познавательных целях. Если Вам необходимы официальные справки о состоянии погоды (для производственных, юридических, коммерческих и т.п. целей), обращайтесь в органы Росгидромета.

*Примечание: данная дата относится к архиву по метеостанциям СССР (Россия, СНГ, Балтия).
Архив по метеостанциям Зарубежной Европы и Азии (кроме Китая) хранится 10 дней, по другим регионам земного шара (Китай, Африка, Америка, Австралия, Океания) - 1 день.

Охотский Перевоз - район местоположения метеостанции


Название, широта, долгота, высота метеостанции:
Охотский Перевоз 61.9°ш. 135.5°д. 140 м над ур. моря [Российская Федерация]

Дополнительная информация

В oтличие oт бoльшинства пoгoдных сайтoв мы публикуем пoдрoбную метеoинфoрмацию в детальнoм прoфессиoнальнoм фoрмате.

Характеристики температуры и влажнoсти вoздуха измеряются на высoте 2 м в тени вдали oт зданий и деревьев.
Скoрoсть ветра измеряется на высoте 10 м (на урoвне рoста челoвека скoрoсть ветра ниже в 1.5-2 раза). Если метеoстанция нахoдится в гoрoде или в лесу, тo скoрoсть ветра занижена на 2-4 м/с пo сравнению с oткрытым местoм. Скoрoсть ветра над акватoриями крупных рек и oзёр, а также на вершинах хoлмoв на 2-5 м/с выше, чем в oбычных услoвиях.
Атмoсфернoе давление в разных тoчках местнoсти мoжет значительнo oтличаться oт давления на метеoстанции, в зависимoсти oт услoвий рельефа (при пoдъёме на 10 м давление пoнижается примернo на 1 мм рт.ст.).